Aeroporto :
LOGIN :

Iscrizione | Disclaimer

   EN    FR    IT 

 










Sommario :    VFR   VFR Marginale   IFR   IFR Intensivo   IFR Molto Intensivo
Visibilità : 
Base nubi : 
>= 8 km
>= 3000ft
5 / 8 km
1000 / 3000 ft
1500m / 5 km
500 / 1000 ft
800 / 1500m
200 / 500 ft
< 800m
< 200 ft
Simboli :   Temporali  Nebbia  Neve Forte  Precipitazioni Forti  Vento > 20 kt
SIGMETs :   Varie  Temporali  Ghiacco  Turbolenza  Onda orograficha  Ceneri Vulcaniche






- Altitudine del aeroporto : 697 ft
- Codice IATA : PEG


LIRZ - San Edigio Perugia

ULTIMO METAR :
  • 200650Z AUTO 27004KT 9999 BKN110/// 18/15 Q1017

METARs OBSOLETI :
  • 200620Z AUTO 03005KT 9999 FEW120/// 18/15 Q1017
  • 200550Z AUTO 02006KT 350V050 9999 SCT120/// 17/15 Q1017
  • 200520Z AUTO 01005KT 9999 NCD 16/15 Q1017
  • 200450Z AUTO 02005KT 9999 NCD 16/15 Q1017
  • 200420Z AUTO 02004KT 9999 NCD 16/15 Q1017

TAF TAF LIRZ
Valido dal 20 a 06 ore il 21 a 06 ore UTC


200500Z 2006/2106 VRB05KT 9999 SCT030
BECMG 2009/2011 22010KT
TEMPO 2010/2102 4000 TSRA
BECMG 2017/2019 VRB05KT



MetMap, La meteo Aeronautica in un colpo d'occhio ! - Copyright ORBIFLY Dicembre 2007 - Disclaimer

ORBIFLY MET'MAP TEAM :

Programmazione e sviluppo : Alexandra Zaïnal
Concezione : Baudouin d'Aumeries
Aiuto per la programmazione : Marc-Olivier Méhu
Supporto tecnico e logistico : Manuel Goepfert
Aiuto per la traduzione : Arnaldo La Scala

Contatto : metmap@orbifly.com




FONTI E CREDITI :

   NOAA